Location: Praha
(50.0755°N, 14.4378°E)
Time: 22:36:16
(UTC+01:00)

ISS - Pass Details

Date: 24 January 2020
Orbit: 415 x 423 km, 51.6° (Epoch: 25 February)

Event Time Altitude Azimuth Distance (km) Brightness Sun altitude
Rises 18:20:02 0° 233° (SW) 2,372 1.3 -15.5°
Reaches altitude 10° 18:22:10 10° 228° (SW) 1,508 0.0 -15.9°
Maximum altitude 18:25:26 48° 153° (SSE) 566 -3.3 -16.4°
Enters shadow 18:26:13 38° 111° (ESE) 658 -3.2 -16.5°
